Regional Weather Roundup
Issued by NWS

Home | Current Version | Previous Version | Graphics & Text | Print | Product List | Glossary On
Versions: 1 2 3 4 5 6 7 8 9 10 11 12 13 14 15 16 17 18 19 20 21 22 23 24 25 26 27 28 29 30 31 32 33 34 35 36 37 38 39 40 41 42 43 44 45 46 47 48 49 50
000
ASUS43 KMPX 310901
RWRMN
WEATHER ROUNDUP FOR MINNESOTA
NATIONAL WEATHER SERVICE TWIN CITIES/CHANHASSEN MN
400 AM CDT FRI OCT 31 2014


NOTE: "FAIR" INDICATES FEW OR NO CLOUDS BELOW 12,000 FEET WITH NO
SIGNIFICANT WEATHER AND/OR OBSTRUCTIONS TO VISIBILITY. N/A MEANS
CURRENT SKY AND/OR WEATHER CONDITIONS ARE NOT AVAILABLE.

MNZ060>063-068>070-311000-
   Twin Cities Metro

CITY           SKY/WX    TMP DP  RH WIND       PRES   REMARKS
TWIN CITIES    PTCLDY    29  16  58 N15G22    30.45R WCI  18
ST PAUL        CLEAR     29  17  61 N13       30.47R WCI  19
CRYSTAL        CLEAR     30  17  58 N10       30.45R WCI  21
BLAINE         PTCLDY    28  19  69 N13       30.45S WCI  18
LAKEVILLE      CLEAR     27  18  69 N17G26    30.44R WCI  14
EDEN PRAIRIE   CLEAR     29  17  61 N17G23    30.44R WCI  17
SOUTH ST PAUL  CLEAR     30  18  60 N8        30.45R WCI  22
LAKE ELMO      FAIR      30  19  64 N10       30.44S WCI  21
$$
MNZ001>005-007-008-013>017-022>024-027-028-311000-
   Northwest Minnesota

CITY           SKY/WX    TMP DP  RH WIND       PRES   REMARKS
BEMIDJI        CLEAR     25  16  69 N5        30.53R WCI  19
HALLOCK        CLEAR     18  14  86 NE3       30.60F
ROSEAU         CLEAR     19  16  86 NW3       30.59S
WARROAD        MOCLDY    21  18  86 NW7       30.58S WCI  13
THIEF RVR FALL CLEAR     21  18  86 N8        30.58S WCI  12
CROOKSTON      CLEAR     18  16  93 N3        30.60F
FOSSTON        CLEAR     16  14  93 CALM      30.57S
DETROIT LAKES  CLEAR     23  19  86 CALM      30.55S
MOORHEAD       CLEAR     18  18 100 N7        30.60S WCI   8
PARK RAPIDS    CLEAR     25  15  66 N8        30.52R WCI  16
MAHNOMEN       FAIR      19  16  88 N5        30.56R WCI  12
$$
MNZ006-009>011-018-025>026-311000-
   North Central Minnesota

CITY           SKY/WX    TMP DP  RH WIND       PRES   REMARKS
BAUDETTE       CLEAR     24  17  74 N5        30.56R WCI  18
FLAG ISLAND    MOCLDY    28  21  74 N9        30.56F WCI  20
INTL FALLS     MOCLDY    27  17  66 N13       30.53R WCI  16
WASKISH        PTCLDY    25  18  74 CALM      30.55S
BIG FORK       MOCLDY    27  18  69 N5        30.51S WCI  21
LONGVILLE      PTCLDY    27  18  69 N8        30.51R WCI  18
GRAND RAPIDS   PTCLDY    27  16  63 N14G20    30.48R WCI  15
CRANE LAKE     CLOUDY    27  19  74 N9        30.52F WCI  17
ORR            CLEAR     25  16  68 CALM      30.48R
COOK           MIX PCPN  27  19  74 N9G17     30.49S WCI  17
WALKER         CLOUDY    26  15  65 N5        30.52R WCI  20
$$
MNZ012-019>021-037-311000-
   Northeast Minnesota

CITY           SKY/WX    TMP DP  RH WIND       PRES   REMARKS
DULUTH         CLOUDY    28  16  60 N15G26    30.43R WCI  16
ELY            CLOUDY    25  18  74 N7        30.45R WCI  17
HIBBING        CLOUDY    27  16  63 N14G21    30.47R WCI  16
EVELETH        CLOUDY    27  19  74 N13G18    30.46S WCI  16
DULUTH HARBOR  MOCLDY    32  21  64 N21G29    30.48R WCI  20
TWO HARBORS    CLOUDY    30  21  69 N8        30.43R WCI  23
SILVER BAY     CLEAR     28  18  64 N8G18     30.42R WCI  20
GRAND MARAIS     N/A     29  18  63 VRB6      30.42R WCI  23
$$
MNZ029>031-032-039>041-046>048-054>057-064-311000-
   West Central Minnesota

CITY           SKY/WX    TMP DP  RH WIND       PRES   REMARKS
FERGUS FALLS   CLEAR     19  16  86 NW8       30.58S WCI   9
WHEATON        CLEAR     19  18  93 N8        30.59S WCI   9
MORRIS         CLEAR     21  18  86 NW10      30.54R WCI  10
ALEXANDRIA     CLEAR     27  19  72 N10       30.52R WCI  17
ELBOW LAKE     FAIR      23  20  90 N7        30.55R WCI  15
WADENA         CLEAR     19  16  86 NW6       30.52R WCI  11
GLENWOOD       CLEAR     25  19  80 N9        30.51S WCI  15
APPLETON       CLEAR     25  21  86 N9        30.55S WCI  15
BENSON         CLEAR     19  18  93 N7        30.54R WCI  10
ORTONVILLE     CLEAR     23  19  86 N8        30.55S WCI  14
MADISON        CLEAR     28  23  80 N10       30.55S WCI  19
WILLMAR        FAIR      28  18  64 N10       30.52R WCI  19
$$
MNZ033>034-036-042>043-049>051-058-059-311000-
   Central Minnesota

CITY           SKY/WX    TMP DP  RH WIND       PRES   REMARKS
ST CLOUD       CLEAR     27  17  66 N9        30.48S WCI  18
SAUK CENTRE    FAIR      25  17  72 NW12      30.51R WCI  14
PAYNESVILLE    CLEAR     22  17  81 W8        30.51R WCI  12
AITKIN         MOCLDY    27  18  69 NW5       30.47R WCI  21
PINE RIVER     CLOUDY    27  18  69 N8        30.52R WCI  18
BRAINERD       CLEAR     26  16  65 N12       30.50R WCI  16
STAPLES        CLEAR     21  16  79 NW7       30.51R WCI  13
LONG PRAIRIE   FAIR      23  18  80 NW7       30.51R WCI  15
LITTLE FALLS   CLEAR     28  18  64 NW5       30.50R WCI  23
LITCHFIELD     CLEAR     27  19  74 N9        30.49S WCI  17
BUFFALO        CLEAR     28  18  66 NW7       30.48S WCI  21
MAPLE LAKE     CLEAR     29  20  69 NW12      30.49R WCI  19
$$
MNZ037-044-045-052-053-311000-
   East Central Minnesota

CITY           SKY/WX    TMP DP  RH WIND       PRES   REMARKS
PRINCETON      CLEAR     28  18  64 N14G20    30.48R WCI  17
MORA           CLEAR     27  16  63 N5        30.48R WCI  21
CAMBRIDGE      PTCLDY    30  18  59 N6        30.45R WCI  24
RUSH CITY      PTCLDY    28  16  63 N8        30.46S WCI  19
MOOSE LAKE     CLOUDY    28  18  64 N10G23    30.45S WCI  19
HINCKLEY       FAIR      28  18  64 N12G22    30.45S WCI  18
CLOQUET        CLOUDY    28  16  59 N14       30.45R WCI  17
MCGREGOR       PTCLDY    28  19  69 N9        30.48R WCI  20
$$
MNZ071>073-080-081-089-090-097-098-311000-
   Southwest Minnesota

CITY           SKY/WX    TMP DP  RH WIND       PRES   REMARKS
MONTEVIDEO     CLEAR     25  19  80 N6        30.55R WCI  18
GRANITE FALLS  CLEAR     24  21  86 NW6       30.54R WCI  17
CANBY          CLEAR     23  21  93 NW7       30.56S WCI  15
MARSHALL       CLEAR     23  18  80 N12       30.51S WCI  12
REDWOOD FALLS  CLEAR     27  19  72 NW9       30.51R WCI  18
OLIVIA         CLEAR     27  19  74 N8        30.50R WCI  18
PIPESTONE      CLEAR     25  19  80 NE12      30.49R WCI  14
WINDOM         CLEAR     25  19  80 N13       30.47S WCI  13
WORTHINGTON    CLEAR     25  19  80 N12       30.49R WCI  14
JACKSON        CLEAR     28  19  69 N12G17    30.46S WCI  18
TRACY          CLEAR     25  21  87 NW9       30.51R WCI  15
SLAYTON        CLEAR     24  20  87 NW12      30.49R WCI  13
$$
MNZ065>067-074>077-082>085-091>093-311000-
   South Central Minnesota

CITY           SKY/WX    TMP DP  RH WIND       PRES   REMARKS
MANKATO        CLEAR     28  12  50 N16       30.45R WCI  17
NEW ULM        CLEAR     27  18  69 N12       30.47S WCI  16
ST JAMES       CLEAR     27  19  74 NW9       30.48S WCI  17
FAIRMONT       CLEAR     27  16  63 NW14      30.45R WCI  15
GLENCOE        CLEAR     29  19  68 N8        30.47S WCI  21
FARIBAULT      CLEAR     28  18  64 N12G18    30.43R WCI  18
OWATONNA       CLEAR     28  16  59 N14G24    30.41S WCI  17
WASECA         CLEAR     27  14  59 NW10      30.44R WCI  17
ALBERT LEA     CLEAR     28  16  59 NW8G17    30.40R WCI  20
$$
MNZ078>079-086>088-094>096-311000-
   Southeast Minnesota

CITY           SKY/WX    TMP DP  RH WIND       PRES   REMARKS
ROCHESTER      CLEAR     27  17  66 N18G28    30.36R WCI  14
RED WING       CLEAR     30  16  55 N14G23    30.40R WCI  20
STANTON        CLEAR     30  18  60 N14G22    30.42R WCI  19
DODGE CENTER   PTCLDY    28  18  64 N16       30.38R WCI  17
WINONA         CLEAR     32  21  64 N12G25    30.36R WCI  23
AUSTIN         CLEAR     28  16  59 N15G23    30.38R WCI  17
PRESTON        CLEAR     27  18  67 N16G24    30.33R WCI  15
$$
ABBREVIATIONS USED IN REMARKS
   TC - TEMPERATURES IN CELSIUS
  WCI - WIND CHILL INDEX
   HX - HEAT INDEX
  VSB - VISIBILITY
$$



USA.gov is the U.S. government's official web portal to all federal, state and local government web resources and services.